Regional Weather Roundup
Issued by NWS

Home | Current Version | Previous Version | Text Only | Print | Product List | Glossary Off
Versions: 1 2 3 4 5 6 7 8 9 10 11 12 13 14 15 16 17 18 19 20 21 22 23 24 25 26 27 28 29 30 31 32 33 34 35 36 37 38 39 40 41 42 43 44 45 46 47 48 49 50

000
ASUS43 KDMX 252108
RWRIA

WEATHER ROUNDUP FOR IOWA
NATIONAL WEATHER SERVICE DES MOINES IA
400 PM CDT MON JUL 25 2016

NOTE: "FAIR" INDICATES FEW OR NO CLOUDS BELOW 12,000 FEET WITH NO
SIGNIFICANT WEATHER AND/OR OBSTRUCTIONS TO VISIBILITY.

* - THESE STATIONS ARE NOT NWS STATIONS...THUS NOT UNDER NWS
QUALITY CONTROL.  THEY ALSO DO NOT REPORT WEATHER SUCH
AS PRECIPITATION OR FOG.

IAZ001>003-012>014-020>022-031>034-043>046-252200-
   NORTHWEST IOWA

CITY           SKY/WX    TMP DP  RH WIND       PRES   REMARKS
CARROLL *      SUNNY     84  63  48 NE5       30.08F HX  85
CHEROKEE *     SUNNY     86  60  41 SW5       30.09F HX  85
DENISON *      SUNNY     84  63  48 E6        30.07F HX  85
LE MARS *      SUNNY     86  63  45 S7G14     30.09F HX  87
SHELDON *      SUNNY     84  63  48 SW7       30.08F HX  85
SIOUX CITY     SUNNY     89  61  38 SE7       30.07F HX  89
SPENCER        SUNNY     84  59  42 SW3       30.09F HX  84
STORM LAKE *   SUNNY     84  59  42 CALM      30.10F HX  84
$$

IAZ055>058-069>071-079>083-090>094-252200-
   SOUTHWEST IOWA

CITY           SKY/WX    TMP DP  RH WIND       PRES   REMARKS
ATLANTIC *     SUNNY     84  64  51 NE6G13    30.07F HX  86
CLARINDA *       N/A     86  70  58 MISG      30.07F HX  90
COUNCIL BLFS * SUNNY     84  66  54 VRB6      30.08F HX  86
CRESTON *      SUNNY     84  64  51 N13       30.08F HX  86
HARLAN  *      SUNNY     84  64  51 VRB3      30.12F HX  86
LAMONI         SUNNY     85  68  56 N13       30.05F HX  88
RED OAK *      SUNNY     86  68  54 N10       30.06F HX  89
SHENANDOAH *   SUNNY     84  72  65 N8        30.06F HX  89
$$

IAZ047>049-059>061-072>074-084-252200-
   CENTRAL IOWA

CITY           SKY/WX    TMP DP  RH WIND       PRES   REMARKS
AMES           SUNNY     86  64  47 N12       30.07F HX  87
ANKENY *         N/A    N/A N/A N/A MISG        N/A
BOONE *        SUNNY     86  63  45 N5        30.07F HX  87
CHARITON *       N/A    N/A N/A N/A MISG        N/A
DES MOINES     MOSUNNY   88  60  38 N16       30.05F HX  87
GRINNELL*      SUNNY     83  64  51 NW8       30.06F HX  84
KNOXVILLE *    SUNNY     84  63  48 N10G17    30.04F HX  85
MARSHALLTOWN   SUNNY     85  61  44 N14       30.05F HX  85
NEWTON *       SUNNY     84  64  51 N12G17    30.05F HX  86
PELLA *        SUNNY     85  65  50 N8        30.06F HX  87
PERRY *          N/A     85  66  52 NE6       30.08F HX  87
$$

IAZ004>006-015-016-023>025-035-036-252200-
   NORTH CENTRAL IOWA

CITY           SKY/WX    TMP DP  RH WIND       PRES   REMARKS
ALGONA *       SUNNY     84  63  48 NW5       30.09S HX  85
ESTHERVILLE    SUNNY     83  66  56 NW7       30.09S HX  85
FORT DODGE *   SUNNY     84  63  48 CALM      30.09F HX  85
MASON CITY     SUNNY     84  62  47 N12       30.09S HX  85
FOREST CITY *    N/A     82  57  42 NW9       30.08S HX  82
IOWA FALLS *     N/A     85  63  47 N7        30.08F HX  86
$$

IAZ007>011-017>019-026>030-037>042-050>054-066-252200-
   NORTHEAST IOWA

CITY           SKY/WX    TMP DP  RH WIND       PRES   REMARKS
CEDAR RAPIDS   MOSUNNY   82  66  58 N8        30.03F HX  84
CHARLES CITY * SUNNY     82  63  51 N9G15     30.07S HX  83
CLINTON *      SUNNY     85  66  53 N9        30.02F HX  87
DECORAH *      SUNNY     81  63  54 VRB3G14   30.04F HX  82
DUBUQUE        MOSUNNY   82  63  52 N10       30.04F HX  83
MONTICELLO *   MOSUNNY   82  66  57 N9G15     30.03F HX  85
OELWEIN *      MOSUNNY   82  66  57 N9        30.06F HX  85
WATERLOO       SUNNY     84  61  45 N12       30.03F HX  84
$$

IAZ064-065-067-068-078-252200-
   EAST CENTRAL IOWA

CITY           SKY/WX    TMP DP  RH WIND       PRES   REMARKS
DAVENPORT      MOSUNNY   84  67  56 N8        30.02F HX  86
IOWA CITY      SUNNY     85  64  49 N12G20    30.04F HX  86
MT. PLEASANT * CLOUDY    85  66  53 N10       30.02F HX  87
MUSCATINE *    MOSUNNY   84  64  51 N12       30.02F HX  86
QUAD CITIES    MOSUNNY   86  66  51 N7        30.00F HX  88
$$

IAZ062-063-075>077-085>089-095>099-252200-
   SOUTHEAST IOWA

CITY           SKY/WX    TMP DP  RH WIND       PRES   REMARKS
BURLINGTON     CLOUDY    83  70  64 N10       30.02F HX  87
FAIRFIELD *    MOSUNNY   84  64  51 N12       30.03F HX  86
KEOKUK *       CLOUDY    84  68  58 N9        30.01F HX  87
OSKALOOSA *      N/A     82  67  58 N10       30.05S HX  85
CENTERVILLE *    N/A     84  66  54 N9        30.06F HX  86
OTTUMWA        SUNNY     84  63  49 N14       30.04S HX  85
WASHINGTON *   CLOUDY    82  68  61 N10       30.04F HX  85
$$

ABBREVIATIONS USED IN REMARKS
   TC - TEMPERATURES IN CELSIUS
  WCI - WIND CHILL INDEX
   HX - HEAT INDEX
  VSB - VISIBILITY
$$





USA.gov is the U.S. government's official web portal to all federal, state and local government web resources and services.